TimeEST,TemperatureF,Dew PointF,Humidity,Sea Level PressureIn,VisibilityMPH,Wind Direction,Wind SpeedMPH,Gust SpeedMPH,PrecipitationIn,Events,Conditions,WindDirDegrees,DateUTC
12:36 AM,77.0,73.4,89,29.90,10.0,SW,6.9,-,N/A,,Overcast,220,2013-02-27 05:36:00
12:53 AM,77.0,73.9,90,29.91,10.0,SSW,5.8,-,N/A,,Mostly Cloudy,210,2013-02-27 05:53:00
1:14 AM,77.0,73.4,89,29.89,10.0,SSW,5.8,-,N/A,,Scattered Clouds,200,2013-02-27 06:14:00
1:53 AM,75.9,73.0,91,29.89,10.0,SSW,4.6,-,N/A,,Clear,210,2013-02-27 06:53:00
2:17 AM,75.2,73.4,94,29.89,10.0,SW,5.8,-,N/A,,Mostly Cloudy,230,2013-02-27 07:17:00
2:45 AM,75.2,73.4,94,29.87,10.0,SW,6.9,-,N/A,,Mostly Cloudy,230,2013-02-27 07:45:00
2:53 AM,75.9,73.0,91,29.88,10.0,WSW,5.8,-,N/A,,Mostly Cloudy,240,2013-02-27 07:53:00
3:30 AM,75.2,73.4,94,29.88,10.0,West,8.1,-,N/A,,Mostly Cloudy,260,2013-02-27 08:30:00
3:42 AM,75.2,73.4,94,29.88,9.0,WSW,6.9,-,N/A,,Overcast,250,2013-02-27 08:42:00
3:51 AM,75.2,75.2,100,29.87,8.0,WSW,6.9,-,N/A,,Overcast,250,2013-02-27 08:51:00
3:53 AM,75.0,75.0,100,29.88,7.0,WSW,5.8,-,0.00,Rain,Light Rain,250,2013-02-27 08:53:00
4:22 AM,73.4,73.4,100,29.88,10.0,West,8.1,-,0.00,,Overcast,270,2013-02-27 09:22:00
4:29 AM,73.4,73.4,100,29.88,9.0,West,8.1,-,0.00,,Overcast,270,2013-02-27 09:29:00
4:53 AM,73.9,73.0,97,29.88,9.0,West,5.8,-,0.00,,Overcast,280,2013-02-27 09:53:00
5:00 AM,73.4,73.4,100,29.88,9.0,WNW,5.8,-,N/A,,Overcast,290,2013-02-27 10:00:00
5:22 AM,73.4,71.6,94,29.89,10.0,NW,6.9,-,N/A,,Overcast,310,2013-02-27 10:22:00
5:40 AM,71.6,66.2,83,29.90,10.0,NW,10.4,-,N/A,,Overcast,310,2013-02-27 10:40:00
5:53 AM,71.1,68.0,90,29.91,9.0,NW,9.2,-,0.00,Rain,Light Rain,320,2013-02-27 10:53:00
6:06 AM,69.8,66.2,88,29.91,8.0,NW,8.1,-,0.00,Rain,Light Rain,310,2013-02-27 11:06:00
6:50 AM,69.8,66.2,88,29.92,10.0,NW,8.1,-,0.01,,Overcast,320,2013-02-27 11:50:00
6:53 AM,69.1,66.9,93,29.93,10.0,NW,8.1,-,0.01,,Overcast,320,2013-02-27 11:53:00
7:53 AM,70.0,68.0,93,29.94,8.0,NNW,8.1,-,0.00,,Overcast,330,2013-02-27 12:53:00
8:53 AM,71.1,66.9,87,29.96,9.0,NNW,10.4,-,N/A,,Scattered Clouds,330,2013-02-27 13:53:00
9:53 AM,73.9,64.0,71,29.96,10.0,North,9.2,-,N/A,,Clear,350,2013-02-27 14:53:00
10:53 AM,75.9,62.1,62,29.98,10.0,NW,8.1,-,N/A,,Mostly Cloudy,320,2013-02-27 15:53:00
11:53 AM,75.0,61.0,62,29.97,10.0,NNW,4.6,-,N/A,,Overcast,330,2013-02-27 16:53:00
12:53 PM,73.9,61.0,64,29.96,8.0,West,6.9,-,0.01,Rain,Light Rain,270,2013-02-27 17:53:00
1:53 PM,70.0,66.9,90,29.95,10.0,South,4.6,-,0.05,,Mostly Cloudy,170,2013-02-27 18:53:00
2:17 PM,68.0,68.0,100,29.94,5.0,Variable,3.5,-,0.07,Rain,Rain,0,2013-02-27 19:17:00
2:33 PM,68.0,68.0,100,29.93,5.0,South,3.5,-,0.08,Rain,Light Rain,180,2013-02-27 19:33:00
2:41 PM,68.0,68.0,100,29.93,5.0,Calm,Calm,-,0.08,Rain,Light Rain,0,2013-02-27 19:41:00
2:53 PM,68.0,66.9,96,29.94,5.0,WSW,3.5,-,0.08,Rain,Light Rain,250,2013-02-27 19:53:00
3:01 PM,69.8,68.0,94,29.93,8.0,Calm,Calm,-,0.00,Rain,Light Rain,0,2013-02-27 20:01:00
3:30 PM,69.8,66.2,88,29.92,10.0,NW,6.9,-,0.00,,Overcast,320,2013-02-27 20:30:00
3:53 PM,69.1,66.0,90,29.92,9.0,Calm,Calm,-,0.00,,Overcast,0,2013-02-27 20:53:00
4:04 PM,69.8,66.2,88,29.92,9.0,NNW,3.5,-,N/A,,Overcast,330,2013-02-27 21:04:00
4:42 PM,69.8,66.2,88,29.93,8.0,NNW,6.9,-,0.00,,Overcast,330,2013-02-27 21:42:00
4:53 PM,69.1,66.9,93,29.94,5.0,NW,9.2,-,0.00,Rain,Light Rain,320,2013-02-27 21:53:00
5:06 PM,66.2,66.2,100,29.93,10.0,NNW,10.4,-,0.00,,Overcast,330,2013-02-27 22:06:00
5:17 PM,66.2,66.2,100,29.94,4.0,NW,10.4,-,0.01,Rain,Light Rain,320,2013-02-27 22:17:00
5:53 PM,66.0,66.0,100,29.94,10.0,WNW,6.9,-,0.01,,Overcast,290,2013-02-27 22:53:00
6:33 PM,66.2,66.2,100,29.94,10.0,NW,4.6,-,N/A,,Overcast,310,2013-02-27 23:33:00
6:53 PM,66.0,64.9,96,29.95,10.0,NW,3.5,-,N/A,,Overcast,320,2013-02-27 23:53:00
7:21 PM,66.2,64.4,94,29.95,9.0,NW,6.9,-,0.00,,Overcast,320,2013-02-28 00:21:00
7:36 PM,66.2,64.4,94,29.95,8.0,NW,4.6,-,0.00,,Overcast,310,2013-02-28 00:36:00
7:53 PM,66.0,64.9,96,29.96,9.0,NW,3.5,-,0.00,,Overcast,320,2013-02-28 00:53:00
8:46 PM,64.4,64.4,100,29.97,8.0,NW,9.2,-,0.01,Rain,Light Rain,310,2013-02-28 01:46:00
8:53 PM,64.9,64.9,100,29.98,7.0,NW,5.8,-,0.01,Rain,Light Rain,310,2013-02-28 01:53:00
9:14 PM,64.4,64.4,100,29.97,6.0,WNW,3.5,-,0.00,Rain,Light Rain,300,2013-02-28 02:14:00
9:53 PM,64.9,64.9,100,29.96,8.0,SW,3.5,-,0.01,Rain,Light Rain,220,2013-02-28 02:53:00
10:39 PM,66.2,64.4,94,29.96,10.0,South,3.5,-,0.00,,Overcast,190,2013-02-28 03:39:00
10:48 PM,66.2,64.4,94,29.97,10.0,WSW,4.6,-,0.00,,Overcast,250,2013-02-28 03:48:00
10:53 PM,66.0,64.9,96,29.97,10.0,WSW,3.5,-,0.00,,Overcast,250,2013-02-28 03:53:00
11:08 PM,66.2,66.2,100,29.97,10.0,West,4.6,-,N/A,,Overcast,270,2013-02-28 04:08:00
11:35 PM,66.2,66.2,100,29.97,9.0,WNW,5.8,-,N/A,,Overcast,300,2013-02-28 04:35:00
11:53 PM,66.0,66.0,100,29.97,10.0,WNW,5.8,-,N/A,,Overcast,290,2013-02-28 04:53:00